User: anonymous   Login
Location: Unspecified
(0.0000°N, 0.0000°E)
Time: 06:57:40
(UTC+00:00)
Language:

Kosmos-2218 - Orbit

View from above orbital plane
View from above orbital plane
View from above satellite
View from above satellite

Ground track
Ground track

The orbit data is extracted from the following two-line orbital elements,

1 22207U 92073A   17202.91959361 +.00000021 +00000-0 +64995-5 0  9990
2 22207 082.9203 023.5472 0033534 039.3749 119.7968 13.72860848238679
Epoch (UTC): 21 July 2017 22:04:12
Eccentricity: 0.0033534
inclination: 82.9203°
perigee height: 964 km
apogee height: 1014 km
right ascension of ascending node: 23.5472°
argument of perigee: 39.3749°
revolutions per day: 13.72860848
mean anomaly at epoch: 119.7968°
orbit number at epoch: 23867

The dashed part of the orbit path shows where the satellite is in the earth's shadow,  

DLR